{"data":{"norad_id":66865,"intl_designator":"2025-281T","name":"STARLINK-36117","alt_names":[],"object_type":"PAYLOAD","status":"ACTIVE","operator":null,"country":"US","launch_date":"2025-12-02","launch_site_code":"AFETR","launch_vehicle":null,"mission":null,"orbit_class":"UNKNOWN","rcs_meters":null,"size_class":null,"mass_kg":null,"dimensions":null,"purposes":["comms"],"wikipedia_slug":null,"has_3d_model":false,"image_url":null,"decayed_at":null,"tle_current":{"epoch":"2026-05-24T18:17:55.452768Z","epoch_age_seconds":95638,"freshness":"FRESH","line1":"1 66865U 25281T   26144.76244737  .00019587  00000+0  71908-3 0  9993","line2":"2 66865  43.0012 273.5279 0001596 265.9012  94.1658 15.27594685 27828","mean_motion":15.27594685,"eccentricity":0.0001596,"inclination_deg":43.0012,"raan_deg":273.5279,"arg_perigee_deg":265.9012,"mean_anomaly_deg":94.1658,"bstar":0.00071908,"rev_number":2782,"period_min":94.265842513062,"perigee_km":481.91008593599,"apogee_km":484.10016250204,"semimajor_km":6861.142124219,"source":"CELESTRAK","updated_at":"2026-05-25T13:38:21.343919Z"}}}